Time,TemperatureF,DewpointF,PressureIn,WindDirection,WindDirectionDegrees,WindSpeedMPH,WindSpeedGustMPH,Humidity,HourlyPrecipIn,Conditions,Clouds,dailyrainin,SoftwareType,DateUTC
2013-11-27 00:02:00,27.3,16.3,30.03,North,-999,-999.0,-999.0,63,-99.99,,,-99.99,WSDL version 443,2013-11-27 05:02:00,
2013-11-27 00:07:00,27.3,16.8,30.03,North,-999,-999.0,-999.0,64,0.00,,,0.00,WSDL version 443,2013-11-27 05:07:00,
2013-11-27 00:12:00,27.3,16.8,30.03,North,-999,-999.0,-999.0,64,0.00,,,0.00,WSDL version 443,2013-11-27 05:12:00,
2013-11-27 00:17:00,27.3,17.1,30.03,North,-999,-999.0,-999.0,65,0.00,,,0.00,WSDL version 443,2013-11-27 05:17:00,
2013-11-27 00:22:00,27.1,16.2,30.00,North,-999,-999.0,-999.0,63,0.00,,,0.00,WSDL version 443,2013-11-27 05:22:00,
2013-11-27 00:27:00,27.0,15.4,30.00,North,-999,-999.0,-999.0,61,0.00,,,0.00,WSDL version 443,2013-11-27 05:27:00,
2013-11-27 00:32:00,26.8,15.6,30.00,North,-999,-999.0,-999.0,62,0.00,,,0.00,WSDL version 443,2013-11-27 05:32:00,
2013-11-27 00:37:00,26.8,14.1,30.03,North,-999,-999.0,-999.0,58,0.00,,,0.00,WSDL version 443,2013-11-27 05:37:00,
2013-11-27 00:42:00,26.9,13.7,30.03,North,-999,-999.0,-999.0,57,0.00,,,0.00,WSDL version 443,2013-11-27 05:42:00,
2013-11-27 00:47:00,26.8,13.6,30.03,North,-999,-999.0,-999.0,57,0.00,,,0.00,WSDL version 443,2013-11-27 05:47:00,
2013-11-27 00:52:00,26.8,13.2,30.03,North,-999,-999.0,-999.0,56,0.00,,,0.00,WSDL version 443,2013-11-27 05:52:00,
2013-11-27 00:57:00,26.7,13.1,30.03,North,-999,-999.0,-999.0,56,0.00,,,0.00,WSDL version 443,2013-11-27 05:57:00,
2013-11-27 01:02:00,26.6,13.4,30.03,North,-999,-999.0,-999.0,57,0.00,,,0.00,WSDL version 443,2013-11-27 06:02:00,
2013-11-27 01:07:00,26.6,13.6,30.03,North,-999,-999.0,-999.0,57,0.00,,,0.00,WSDL version 443,2013-11-27 06:07:00,
2013-11-27 01:12:00,26.5,13.4,30.03,North,-999,-999.0,-999.0,57,0.00,,,0.00,WSDL version 443,2013-11-27 06:12:00,
2013-11-27 01:17:00,26.4,13.7,30.03,North,-999,-999.0,-999.0,58,0.00,,,0.00,WSDL version 443,2013-11-27 06:17:00,
2013-11-27 01:22:00,26.1,13.3,30.03,North,-999,-999.0,-999.0,58,0.00,,,0.00,WSDL version 443,2013-11-27 06:22:00,
2013-11-27 01:27:00,25.8,12.4,30.03,North,-999,-999.0,-999.0,56,0.00,,,0.00,WSDL version 443,2013-11-27 06:27:00,
2013-11-27 01:34:00,25.6,12.1,30.03,North,-999,-999.0,-999.0,56,0.00,,,0.00,WSDL version 443,2013-11-27 06:34:00,
2013-11-27 01:39:00,25.5,12.3,30.06,North,-999,-999.0,-999.0,57,0.00,,,0.00,WSDL version 443,2013-11-27 06:39:00,
2013-11-27 01:44:00,25.5,11.7,30.06,North,-999,-999.0,-999.0,55,0.00,,,0.00,WSDL version 443,2013-11-27 06:44:00,
2013-11-27 01:54:00,25.0,10.0,30.06,North,-999,-999.0,-999.0,52,0.00,,,0.00,WSDL version 443,2013-11-27 06:54:00,
2013-11-27 01:59:00,24.7,9.0,30.06,North,-999,-999.0,-999.0,51,0.00,,,0.00,WSDL version 443,2013-11-27 06:59:00,
2013-11-27 02:04:00,24.4,8.7,30.06,North,-999,-999.0,-999.0,51,0.00,,,0.00,WSDL version 443,2013-11-27 07:04:00,
2013-11-27 02:09:00,24.2,8.1,30.09,North,-999,-999.0,-999.0,50,0.00,,,0.00,WSDL version 443,2013-11-27 07:09:00,
2013-11-27 02:14:00,24.0,7.1,30.09,North,-999,-999.0,-999.0,48,0.00,,,0.00,WSDL version 443,2013-11-27 07:14:00,
2013-11-27 02:19:00,23.9,6.2,30.09,North,-999,-999.0,-999.0,46,0.00,,,0.00,WSDL version 443,2013-11-27 07:19:00,
2013-11-27 02:24:00,23.8,6.6,30.09,North,-999,-999.0,-999.0,47,0.00,,,0.00,WSDL version 443,2013-11-27 07:24:00,
2013-11-27 02:29:00,23.7,6.4,30.09,North,-999,-999.0,-999.0,47,0.00,,,0.00,WSDL version 443,2013-11-27 07:29:00,
2013-11-27 02:34:00,23.7,6.4,30.09,North,-999,-999.0,-999.0,47,0.00,,,0.00,WSDL version 443,2013-11-27 07:34:00,
2013-11-27 02:39:00,23.7,6.4,30.09,North,-999,-999.0,-999.0,47,0.00,,,0.00,WSDL version 443,2013-11-27 07:39:00,
2013-11-27 02:44:00,23.7,6.4,30.09,North,-999,-999.0,-999.0,47,0.00,,,0.00,WSDL version 443,2013-11-27 07:44:00,
2013-11-27 02:49:00,23.5,6.5,30.09,North,-999,-999.0,-999.0,48,0.00,,,0.00,WSDL version 443,2013-11-27 07:49:00,
2013-11-27 02:54:00,23.5,6.3,30.09,North,-999,-999.0,-999.0,47,0.00,,,0.00,WSDL version 443,2013-11-27 07:54:00,
2013-11-27 02:59:00,23.5,5.7,30.09,North,-999,-999.0,-999.0,46,0.00,,,0.00,WSDL version 443,2013-11-27 07:59:00,
2013-11-27 03:04:00,23.5,4.9,30.09,North,-999,-999.0,-999.0,44,0.00,,,0.00,WSDL version 443,2013-11-27 08:04:00,
2013-11-27 03:09:00,23.5,5.1,30.09,North,-999,-999.0,-999.0,45,0.00,,,0.00,WSDL version 443,2013-11-27 08:09:00,
2013-11-27 03:14:00,23.4,4.6,30.09,North,-999,-999.0,-999.0,44,0.00,,,0.00,WSDL version 443,2013-11-27 08:14:00,
2013-11-27 03:19:00,23.4,4.6,30.09,North,-999,-999.0,-999.0,44,0.00,,,0.00,WSDL version 443,2013-11-27 08:19:00,
2013-11-27 03:24:00,23.4,4.5,30.09,North,-999,-999.0,-999.0,44,0.00,,,0.00,WSDL version 443,2013-11-27 08:24:00,
2013-11-27 03:29:00,23.4,4.6,30.09,North,-999,-999.0,-999.0,44,0.00,,,0.00,WSDL version 443,2013-11-27 08:29:00,
2013-11-27 03:34:00,23.4,4.6,30.09,North,-999,-999.0,-999.0,44,0.00,,,0.00,WSDL version 443,2013-11-27 08:34:00,
2013-11-27 03:39:00,23.2,4.8,30.06,North,-999,-999.0,-999.0,45,0.00,,,0.00,WSDL version 443,2013-11-27 08:39:00,
2013-11-27 03:44:00,23.2,5.0,30.06,North,-999,-999.0,-999.0,45,0.00,,,0.00,WSDL version 443,2013-11-27 08:44:00,
2013-11-27 03:49:00,23.2,5.5,30.06,North,-999,-999.0,-999.0,46,0.00,,,0.00,WSDL version 443,2013-11-27 08:49:00,
2013-11-27 03:54:00,23.1,5.9,30.09,North,-999,-999.0,-999.0,47,0.00,,,0.00,WSDL version 443,2013-11-27 08:54:00,
2013-11-27 03:59:00,23.0,5.6,30.09,North,-999,-999.0,-999.0,47,0.00,,,0.00,WSDL version 443,2013-11-27 08:59:00,
2013-11-27 04:04:00,22.9,4.9,30.09,North,-999,-999.0,-999.0,45,0.00,,,0.00,WSDL version 443,2013-11-27 09:04:00,
2013-11-27 04:09:00,22.8,4.6,30.09,North,-999,-999.0,-999.0,45,0.00,,,0.00,WSDL version 443,2013-11-27 09:09:00,
2013-11-27 04:14:00,22.7,4.3,30.09,North,-999,-999.0,-999.0,45,0.00,,,0.00,WSDL version 443,2013-11-27 09:14:00,
2013-11-27 04:19:00,22.6,4.2,30.09,North,-999,-999.0,-999.0,45,0.00,,,0.00,WSDL version 443,2013-11-27 09:19:00,
2013-11-27 04:24:00,22.5,4.4,30.09,North,-999,-999.0,-999.0,45,0.00,,,0.00,WSDL version 443,2013-11-27 09:24:00,
2013-11-27 04:29:00,22.3,4.2,30.09,North,-999,-999.0,-999.0,45,0.00,,,0.00,WSDL version 443,2013-11-27 09:29:00,
2013-11-27 04:34:00,22.2,4.4,30.09,North,-999,-999.0,-999.0,46,0.00,,,0.00,WSDL version 443,2013-11-27 09:34:00,
2013-11-27 04:39:00,22.1,4.7,30.09,North,-999,-999.0,-999.0,47,0.00,,,0.00,WSDL version 443,2013-11-27 09:39:00,
2013-11-27 04:44:00,21.9,4.8,30.09,North,-999,-999.0,-999.0,47,0.00,,,0.00,WSDL version 443,2013-11-27 09:44:00,
2013-11-27 04:49:00,21.9,4.8,30.09,North,-999,-999.0,-999.0,47,0.00,,,0.00,WSDL version 443,2013-11-27 09:49:00,
2013-11-27 04:54:00,21.7,4.6,30.09,North,-999,-999.0,-999.0,47,0.00,,,0.00,WSDL version 443,2013-11-27 09:54:00,
2013-11-27 04:59:00,21.6,4.6,30.09,North,-999,-999.0,-999.0,47,0.00,,,0.00,WSDL version 443,2013-11-27 09:59:00,
2013-11-27 05:04:00,21.4,4.6,30.09,North,-999,-999.0,-999.0,48,0.00,,,0.00,WSDL version 443,2013-11-27 10:04:00,
2013-11-27 05:09:00,21.3,4.6,30.09,North,-999,-999.0,-999.0,48,0.00,,,0.00,WSDL version 443,2013-11-27 10:09:00,
2013-11-27 05:14:00,21.1,4.5,30.09,North,-999,-999.0,-999.0,48,0.00,,,0.00,WSDL version 443,2013-11-27 10:14:00,
2013-11-27 05:19:00,20.8,4.5,30.09,North,-999,-999.0,-999.0,49,0.00,,,0.00,WSDL version 443,2013-11-27 10:19:00,
2013-11-27 05:24:00,20.4,4.3,30.06,North,-999,-999.0,-999.0,49,0.00,,,0.00,WSDL version 443,2013-11-27 10:24:00,
2013-11-27 05:29:00,20.2,4.0,30.06,North,-999,-999.0,-999.0,49,0.00,,,0.00,WSDL version 443,2013-11-27 10:29:00,
2013-11-27 05:34:00,19.7,4.1,30.06,North,-999,-999.0,-999.0,50,0.00,,,0.00,WSDL version 443,2013-11-27 10:34:00,
2013-11-27 05:39:00,19.4,4.2,30.09,North,-999,-999.0,-999.0,51,0.00,,,0.00,WSDL version 443,2013-11-27 10:39:00,
2013-11-27 05:44:00,19.1,3.9,30.09,North,-999,-999.0,-999.0,51,0.00,,,0.00,WSDL version 443,2013-11-27 10:44:00,
2013-11-27 05:49:00,18.7,4.0,30.09,North,-999,-999.0,-999.0,52,0.00,,,0.00,WSDL version 443,2013-11-27 10:49:00,
2013-11-27 05:54:00,18.2,3.9,30.09,North,-999,-999.0,-999.0,53,0.00,,,0.00,WSDL version 443,2013-11-27 10:54:00,
2013-11-27 05:59:00,17.9,3.8,30.09,North,-999,-999.0,-999.0,53,0.00,,,0.00,WSDL version 443,2013-11-27 10:59:00,
2013-11-27 06:04:00,17.7,4.0,30.09,North,-999,-999.0,-999.0,54,0.00,,,0.00,WSDL version 443,2013-11-27 11:04:00,
2013-11-27 06:09:00,17.4,3.7,30.09,North,-999,-999.0,-999.0,54,0.00,,,0.00,WSDL version 443,2013-11-27 11:09:00,
2013-11-27 06:14:00,17.2,3.8,30.09,North,-999,-999.0,-999.0,55,0.00,,,0.00,WSDL version 443,2013-11-27 11:14:00,
2013-11-27 06:19:00,17.1,4.1,30.09,North,-999,-999.0,-999.0,56,0.00,,,0.00,WSDL version 443,2013-11-27 11:19:00,
2013-11-27 06:24:00,16.9,3.9,30.09,North,-999,-999.0,-999.0,56,0.00,,,0.00,WSDL version 443,2013-11-27 11:24:00,
2013-11-27 06:29:00,16.7,3.7,30.09,North,-999,-999.0,-999.0,56,0.00,,,0.00,WSDL version 443,2013-11-27 11:29:00,
2013-11-27 06:34:00,16.8,4.2,30.09,North,-999,-999.0,-999.0,57,0.00,,,0.00,WSDL version 443,2013-11-27 11:34:00,
2013-11-27 06:39:00,16.8,4.2,30.09,North,-999,-999.0,-999.0,57,0.00,,,0.00,WSDL version 443,2013-11-27 11:39:00,
2013-11-27 06:44:00,16.9,4.5,30.09,North,-999,-999.0,-999.0,58,0.00,,,0.00,WSDL version 443,2013-11-27 11:44:00,
2013-11-27 06:49:00,16.8,4.0,30.09,WNW,293,2.9,4.0,57,0.00,,,0.00,WSDL version 443,2013-11-27 11:49:00,
2013-11-27 06:54:00,16.6,3.6,30.09,WNW,293,2.9,4.0,56,0.00,,,0.00,WSDL version 443,2013-11-27 11:54:00,
2013-11-27 06:59:00,16.1,3.0,30.09,WNW,293,2.9,4.0,56,0.00,,,0.00,WSDL version 443,2013-11-27 11:59:00,
2013-11-27 07:04:00,15.8,2.8,30.09,WNW,293,2.9,4.0,56,0.00,,,0.00,WSDL version 443,2013-11-27 12:04:00,
2013-11-27 07:09:00,15.5,2.6,30.09,North,-999,-999.0,-999.0,56,0.00,,,0.00,WSDL version 443,2013-11-27 12:09:00,
2013-11-27 07:14:00,15.3,2.4,30.09,North,-999,-999.0,-999.0,56,0.00,,,0.00,WSDL version 443,2013-11-27 12:14:00,
2013-11-27 07:19:00,15.1,2.3,30.09,North,-999,-999.0,-999.0,56,0.00,,,0.00,WSDL version 443,2013-11-27 12:19:00,
2013-11-27 07:24:00,15.3,2.7,30.09,North,-999,-999.0,-999.0,57,0.00,,,0.00,WSDL version 443,2013-11-27 12:24:00,
2013-11-27 07:29:00,15.1,3.0,30.09,North,-999,-999.0,-999.0,58,0.00,,,0.00,WSDL version 443,2013-11-27 12:29:00,
2013-11-27 07:34:00,14.8,2.4,30.09,North,-999,-999.0,-999.0,57,0.00,,,0.00,WSDL version 443,2013-11-27 12:34:00,
2013-11-27 07:39:00,14.6,2.3,30.09,WSW,248,2.0,2.0,58,0.00,,,0.00,WSDL version 443,2013-11-27 12:39:00,
2013-11-27 07:44:00,14.6,2.5,30.09,WSW,248,2.0,2.0,58,0.00,,,0.00,WSDL version 443,2013-11-27 12:44:00,
2013-11-27 07:49:00,14.4,2.3,30.09,WSW,248,2.0,2.0,58,0.00,,,0.00,WSDL version 443,2013-11-27 12:49:00,
2013-11-27 07:54:00,14.6,2.8,30.09,North,-999,-999.0,-999.0,59,0.00,,,0.00,WSDL version 443,2013-11-27 12:54:00,
2013-11-27 07:59:00,14.8,3.0,30.09,North,-999,-999.0,-999.0,59,0.00,,,0.00,WSDL version 443,2013-11-27 12:59:00,
2013-11-27 08:04:00,15.2,3.5,30.09,North,-999,-999.0,-999.0,59,0.00,,,0.00,WSDL version 443,2013-11-27 13:04:00,
2013-11-27 08:09:00,16.3,4.5,30.09,North,-999,-999.0,-999.0,59,0.00,,,0.00,WSDL version 443,2013-11-27 13:09:00,
2013-11-27 08:19:00,18.5,5.3,30.09,North,-999,-999.0,-999.0,56,0.00,,,0.00,WSDL version 443,2013-11-27 13:19:00,
2013-11-27 08:24:00,19.6,5.4,30.09,North,-999,-999.0,-999.0,53,0.00,,,0.00,WSDL version 443,2013-11-27 13:24:00,
2013-11-27 08:29:00,20.8,5.6,30.09,North,-999,-999.0,-999.0,51,0.00,,,0.00,WSDL version 443,2013-11-27 13:29:00,
2013-11-27 08:34:00,21.7,5.1,30.09,North,-999,-999.0,-999.0,48,0.00,,,0.00,WSDL version 443,2013-11-27 13:34:00,
2013-11-27 08:39:00,22.2,4.3,30.09,North,-999,-999.0,-999.0,46,0.00,,,0.00,WSDL version 443,2013-11-27 13:39:00,
2013-11-27 08:44:00,22.6,4.1,30.09,North,-999,-999.0,-999.0,44,0.00,,,0.00,WSDL version 443,2013-11-27 13:44:00,
2013-11-27 08:49:00,22.6,4.0,30.09,North,-999,-999.0,-999.0,44,0.00,,,0.00,WSDL version 443,2013-11-27 13:49:00,
2013-11-27 08:54:00,21.8,3.3,30.09,North,-999,-999.0,-999.0,44,0.00,,,0.00,WSDL version 443,2013-11-27 13:54:00,
2013-11-27 08:59:00,21.5,3.0,30.09,North,-999,-999.0,-999.0,44,0.00,,,0.00,WSDL version 443,2013-11-27 13:59:00,
2013-11-27 09:09:00,23.3,4.6,30.09,North,-999,-999.0,-999.0,44,0.00,,,0.00,WSDL version 443,2013-11-27 14:09:00,
2013-11-27 09:14:00,23.9,4.8,30.09,North,-999,-999.0,-999.0,43,0.00,,,0.00,WSDL version 443,2013-11-27 14:14:00,
2013-11-27 09:19:00,24.5,5.2,30.09,WSW,248,4.0,4.3,43,0.00,,,0.00,WSDL version 443,2013-11-27 14:19:00,
2013-11-27 09:24:00,25.0,5.3,30.09,WSW,248,4.0,4.3,42,0.00,,,0.00,WSDL version 443,2013-11-27 14:24:00,
2013-11-27 09:29:00,25.3,5.3,30.09,WSW,248,4.0,4.3,42,0.00,,,0.00,WSDL version 443,2013-11-27 14:29:00,
2013-11-27 09:34:00,25.3,5.4,30.09,WSW,248,4.0,4.3,42,0.00,,,0.00,WSDL version 443,2013-11-27 14:34:00,
2013-11-27 09:39:00,25.6,5.7,30.09,North,-999,-999.0,-999.0,42,0.00,,,0.00,WSDL version 443,2013-11-27 14:39:00,
2013-11-27 09:44:00,26.0,5.7,30.09,North,-999,-999.0,-999.0,41,0.00,,,0.00,WSDL version 443,2013-11-27 14:44:00,
2013-11-27 09:49:00,26.3,5.8,30.09,North,-999,-999.0,-999.0,41,0.00,,,0.00,WSDL version 443,2013-11-27 14:49:00,
2013-11-27 09:54:00,26.5,5.9,30.09,North,-999,-999.0,-999.0,41,0.00,,,0.00,WSDL version 443,2013-11-27 14:54:00,
2013-11-27 09:59:00,26.5,5.7,30.09,North,-999,-999.0,-999.0,41,0.00,,,0.00,WSDL version 443,2013-11-27 14:59:00,
2013-11-27 10:04:00,26.5,5.8,30.09,NW,315,8.1,8.1,41,0.00,,,0.00,WSDL version 443,2013-11-27 15:04:00,
2013-11-27 10:09:00,26.7,6.0,30.09,NW,315,6.0,7.8,41,0.00,,,0.00,WSDL version 443,2013-11-27 15:09:00,
2013-11-27 10:14:00,26.8,5.9,30.09,NW,315,4.9,7.8,40,0.00,,,0.00,WSDL version 443,2013-11-27 15:14:00,
2013-11-27 10:24:00,27.3,5.6,30.09,NW,315,4.9,6.3,39,0.00,,,0.00,WSDL version 443,2013-11-27 15:24:00,
2013-11-27 10:29:00,28.0,6.1,30.09,North,-999,-999.0,-999.0,39,0.00,,,0.00,WSDL version 443,2013-11-27 15:29:00,
2013-11-27 10:34:00,27.8,3.7,30.09,North,-999,-999.0,-999.0,35,0.00,,,0.00,WSDL version 443,2013-11-27 15:34:00,
2013-11-27 10:39:00,27.9,3.3,30.06,North,-999,-999.0,-999.0,34,0.00,,,0.00,WSDL version 443,2013-11-27 15:39:00,
2013-11-27 10:44:00,27.7,3.1,30.06,North,-999,-999.0,-999.0,34,0.00,,,0.00,WSDL version 443,2013-11-27 15:44:00,
2013-11-27 10:49:00,27.8,2.5,30.06,North,-999,-999.0,-999.0,33,0.00,,,0.00,WSDL version 443,2013-11-27 15:49:00,
2013-11-27 10:54:00,27.7,2.3,30.09,North,-999,-999.0,-999.0,33,0.00,,,0.00,WSDL version 443,2013-11-27 15:54:00,
2013-11-27 10:59:00,27.5,2.0,30.09,North,-999,-999.0,-999.0,33,0.00,,,0.00,WSDL version 443,2013-11-27 15:59:00,
2013-11-27 11:04:00,28.2,2.8,30.09,North,-999,-999.0,-999.0,33,0.00,,,0.00,WSDL version 443,2013-11-27 16:04:00,
2013-11-27 11:09:00,28.3,2.4,30.09,North,-999,-999.0,-999.0,32,0.00,,,0.00,WSDL version 443,2013-11-27 16:09:00,
2013-11-27 11:14:00,27.0,1.6,30.09,North,-999,-999.0,-999.0,33,0.00,,,0.00,WSDL version 443,2013-11-27 16:14:00,
2013-11-27 11:19:00,28.0,2.7,30.09,North,-999,-999.0,-999.0,33,0.00,,,0.00,WSDL version 443,2013-11-27 16:19:00,
2013-11-27 11:24:00,28.5,2.7,30.09,North,-999,-999.0,-999.0,32,0.00,,,0.00,WSDL version 443,2013-11-27 16:24:00,
2013-11-27 11:29:00,27.3,1.6,30.09,North,-999,-999.0,-999.0,32,0.00,,,0.00,WSDL version 443,2013-11-27 16:29:00,
2013-11-27 11:39:00,28.8,3.3,30.09,North,-999,-999.0,-999.0,33,0.00,,,0.00,WSDL version 443,2013-11-27 16:39:00,
2013-11-27 11:44:00,29.4,3.3,30.09,North,-999,-999.0,-999.0,32,0.00,,,0.00,WSDL version 443,2013-11-27 16:44:00,
2013-11-27 11:49:00,29.4,3.3,30.09,North,-999,-999.0,-999.0,32,0.00,,,0.00,WSDL version 443,2013-11-27 16:49:00,
2013-11-27 11:54:00,27.6,1.6,30.09,North,-999,-999.0,-999.0,32,0.00,,,0.00,WSDL version 443,2013-11-27 16:54:00,
2013-11-27 11:59:00,26.9,1.3,30.09,North,360,10.5,10.5,33,0.00,,,0.00,WSDL version 443,2013-11-27 16:59:00,
2013-11-27 12:04:00,27.1,1.8,30.09,North,360,10.5,10.5,33,0.00,,,0.00,WSDL version 443,2013-11-27 17:04:00,
2013-11-27 12:09:00,26.6,1.9,30.09,North,360,10.5,10.5,34,0.00,,,0.00,WSDL version 443,2013-11-27 17:09:00,
2013-11-27 12:14:00,26.6,2.2,30.09,North,-999,-999.0,-999.0,34,0.00,,,0.00,WSDL version 443,2013-11-27 17:14:00,
2013-11-27 12:19:00,26.2,1.7,30.09,North,-999,-999.0,-999.0,34,0.00,,,0.00,WSDL version 443,2013-11-27 17:19:00,
2013-11-27 12:24:00,26.1,1.8,30.09,North,-999,-999.0,-999.0,34,0.00,,,0.00,WSDL version 443,2013-11-27 17:24:00,
2013-11-27 12:29:00,26.7,2.2,30.09,NNW,338,10.1,10.1,34,0.00,,,0.00,WSDL version 443,2013-11-27 17:29:00,
2013-11-27 12:34:00,26.3,1.7,30.09,NNW,338,10.1,10.1,34,0.00,,,0.00,WSDL version 443,2013-11-27 17:34:00,
2013-11-27 12:39:00,25.6,1.2,30.06,NNW,338,10.1,10.1,34,0.00,,,0.00,WSDL version 443,2013-11-27 17:39:00,
2013-11-27 12:44:00,25.5,0.8,30.06,NW,315,10.4,12.3,34,0.00,,,0.00,WSDL version 443,2013-11-27 17:44:00,
2013-11-27 12:54:00,26.6,1.9,30.09,NW,315,10.5,10.5,34,0.00,,,0.00,WSDL version 443,2013-11-27 17:54:00,
2013-11-27 12:59:00,26.0,0.8,30.09,NW,315,10.5,10.5,33,0.00,,,0.00,WSDL version 443,2013-11-27 17:59:00,
2013-11-27 13:04:00,26.6,1.4,30.09,North,-999,-999.0,-999.0,33,0.00,,,0.00,WSDL version 443,2013-11-27 18:04:00,
2013-11-27 13:09:00,26.8,1.7,30.09,North,-999,-999.0,-999.0,33,0.00,,,0.00,WSDL version 443,2013-11-27 18:09:00,
2013-11-27 13:14:00,26.3,1.4,30.09,North,-999,-999.0,-999.0,33,0.00,,,0.00,WSDL version 443,2013-11-27 18:14:00,
2013-11-27 13:19:00,26.1,1.3,30.09,North,-999,-999.0,-999.0,34,0.00,,,0.00,WSDL version 443,2013-11-27 18:19:00,
2013-11-27 13:24:00,26.8,1.6,30.09,North,-999,-999.0,-999.0,33,0.00,,,0.00,WSDL version 443,2013-11-27 18:24:00,
2013-11-27 13:29:00,28.3,2.1,30.09,North,-999,-999.0,-999.0,32,0.00,,,0.00,WSDL version 443,2013-11-27 18:29:00,
2013-11-27 13:34:00,27.4,1.1,30.09,North,-999,-999.0,-999.0,32,0.00,,,0.00,WSDL version 443,2013-11-27 18:34:00,
2013-11-27 13:39:00,26.7,0.6,30.09,North,-999,-999.0,-999.0,32,0.00,,,0.00,WSDL version 443,2013-11-27 18:39:00,
2013-11-27 13:44:00,27.2,0.6,30.09,North,-999,-999.0,-999.0,31,0.00,,,0.00,WSDL version 443,2013-11-27 18:44:00,
2013-11-27 13:49:00,26.3,0.4,30.09,North,-999,-999.0,-999.0,32,0.00,,,0.00,WSDL version 443,2013-11-27 18:49:00,
2013-11-27 13:54:00,26.0,0.0,30.09,North,-999,-999.0,-999.0,32,0.00,,,0.00,WSDL version 443,2013-11-27 18:54:00,
2013-11-27 13:59:00,25.8,-0.6,30.09,North,-999,-999.0,-999.0,31,0.00,,,0.00,WSDL version 443,2013-11-27 18:59:00,
2013-11-27 14:04:00,26.6,0.2,30.09,North,-999,-999.0,-999.0,31,0.00,,,0.00,WSDL version 443,2013-11-27 19:04:00,
2013-11-27 14:09:00,26.4,-0.1,30.09,North,-999,-999.0,-999.0,31,0.00,,,0.00,WSDL version 443,2013-11-27 19:09:00,
2013-11-27 14:14:00,27.6,0.9,30.09,North,-999,-999.0,-999.0,31,0.00,,,0.00,WSDL version 443,2013-11-27 19:14:00,
2013-11-27 14:19:00,26.6,0.4,30.09,North,-999,-999.0,-999.0,32,0.00,,,0.00,WSDL version 443,2013-11-27 19:19:00,
2013-11-27 14:24:00,25.9,0.1,30.09,North,-999,-999.0,-999.0,32,0.00,,,0.00,WSDL version 443,2013-11-27 19:24:00,
2013-11-27 14:29:00,27.2,0.7,30.09,North,-999,-999.0,-999.0,31,0.00,,,0.00,WSDL version 443,2013-11-27 19:29:00,
2013-11-27 14:34:00,28.5,1.7,30.09,North,-999,-999.0,-999.0,31,0.00,,,0.00,WSDL version 443,2013-11-27 19:34:00,
2013-11-27 14:39:00,27.9,1.0,30.09,North,-999,-999.0,-999.0,31,0.00,,,0.00,WSDL version 443,2013-11-27 19:39:00,
2013-11-27 14:44:00,26.9,0.3,30.09,North,-999,-999.0,-999.0,31,0.00,,,0.00,WSDL version 443,2013-11-27 19:44:00,
2013-11-27 14:49:00,25.9,-0.9,30.09,North,-999,-999.0,-999.0,31,0.00,,,0.00,WSDL version 443,2013-11-27 19:49:00,
2013-11-27 14:54:00,26.3,-0.6,30.09,North,-999,-999.0,-999.0,31,0.00,,,0.00,WSDL version 443,2013-11-27 19:54:00,
2013-11-27 14:59:00,27.5,-1.0,30.09,North,-999,-999.0,-999.0,29,0.00,,,0.00,WSDL version 443,2013-11-27 19:59:00,
2013-11-27 15:04:00,27.8,-1.1,30.09,North,-999,-999.0,-999.0,28,0.00,,,0.00,WSDL version 443,2013-11-27 20:04:00,
2013-11-27 15:09:00,27.9,-1.0,30.09,North,-999,-999.0,-999.0,28,0.00,,,0.00,WSDL version 443,2013-11-27 20:09:00,
2013-11-27 15:14:00,27.6,-1.2,30.09,North,-999,-999.0,-999.0,28,0.00,,,0.00,WSDL version 443,2013-11-27 20:14:00,
2013-11-27 15:19:00,27.8,-1.1,30.09,North,-999,-999.0,-999.0,28,0.00,,,0.00,WSDL version 443,2013-11-27 20:19:00,
2013-11-27 15:29:00,27.9,-2.6,30.09,NNW,338,9.4,10.7,26,0.00,,,0.00,WSDL version 443,2013-11-27 20:29:00,
2013-11-27 15:34:00,28.0,-2.5,30.09,NNW,338,9.4,10.7,26,0.00,,,0.00,WSDL version 443,2013-11-27 20:34:00,
2013-11-27 15:39:00,27.9,-2.6,30.12,NNW,338,9.4,10.7,26,0.00,,,0.00,WSDL version 443,2013-11-27 20:39:00,
2013-11-27 15:44:00,27.8,-2.6,30.12,North,-999,-999.0,-999.0,26,0.00,,,0.00,WSDL version 443,2013-11-27 20:44:00,
2013-11-27 15:49:00,27.8,-2.7,30.12,North,-999,-999.0,-999.0,26,0.00,,,0.00,WSDL version 443,2013-11-27 20:49:00,
2013-11-27 15:54:00,27.7,-2.8,30.12,North,-999,-999.0,-999.0,26,0.00,,,0.00,WSDL version 443,2013-11-27 20:54:00,
2013-11-27 16:08:00,27.0,-3.4,30.12,North,360,8.1,8.5,26,0.00,,,0.00,WSDL version 443,2013-11-27 21:08:00,
2013-11-27 16:18:00,26.1,-1.8,30.12,NNW,338,9.6,9.6,29,0.00,,,0.00,WSDL version 443,2013-11-27 21:18:00,
2013-11-27 16:23:00,26.7,-1.6,30.15,NNW,338,6.7,6.7,29,0.00,,,0.00,WSDL version 443,2013-11-27 21:23:00,
2013-11-27 16:28:00,25.6,-2.3,30.15,NNW,338,6.7,6.7,29,0.00,,,0.00,WSDL version 443,2013-11-27 21:28:00,
2013-11-27 16:33:00,24.6,-2.8,30.15,NNW,338,6.7,6.7,30,0.00,,,0.00,WSDL version 443,2013-11-27 21:33:00,
2013-11-27 16:38:00,24.4,-1.2,30.15,North,-999,-999.0,-999.0,32,0.00,,,0.00,WSDL version 443,2013-11-27 21:38:00,
2013-11-27 16:43:00,24.4,-1.2,30.15,North,-999,-999.0,-999.0,32,0.00,,,0.00,WSDL version 443,2013-11-27 21:43:00,
2013-11-27 16:48:00,24.4,-1.2,30.15,North,-999,-999.0,-999.0,32,0.00,,,0.00,WSDL version 443,2013-11-27 21:48:00,
2013-11-27 16:53:00,24.4,-1.2,30.12,North,-999,-999.0,-999.0,32,0.00,,,0.00,WSDL version 443,2013-11-27 21:53:00,
2013-11-27 16:58:00,24.4,-1.2,30.12,North,-999,-999.0,-999.0,32,0.00,,,0.00,WSDL version 443,2013-11-27 21:58:00,
2013-11-27 17:03:00,24.3,-1.4,30.12,North,-999,-999.0,-999.0,32,0.00,,,0.00,WSDL version 443,2013-11-27 22:03:00,
2013-11-27 17:08:00,24.2,-1.4,30.15,North,-999,-999.0,-999.0,32,0.00,,,0.00,WSDL version 443,2013-11-27 22:08:00,
2013-11-27 17:13:00,23.9,-1.7,30.15,North,-999,-999.0,-999.0,32,0.00,,,0.00,WSDL version 443,2013-11-27 22:13:00,
2013-11-27 17:18:00,23.6,-1.9,30.15,North,-999,-999.0,-999.0,32,0.00,,,0.00,WSDL version 443,2013-11-27 22:18:00,
2013-11-27 17:23:00,23.4,-2.1,30.15,North,-999,-999.0,-999.0,32,0.00,,,0.00,WSDL version 443,2013-11-27 22:23:00,
2013-11-27 17:28:00,23.0,-2.2,30.15,North,-999,-999.0,-999.0,33,0.00,,,0.00,WSDL version 443,2013-11-27 22:28:00,
2013-11-27 17:33:00,22.7,-2.1,30.15,North,-999,-999.0,-999.0,33,0.00,,,0.00,WSDL version 443,2013-11-27 22:33:00,
2013-11-27 17:38:00,22.4,-2.4,30.18,North,-999,-999.0,-999.0,33,0.00,,,0.00,WSDL version 443,2013-11-27 22:38:00,
2013-11-27 17:43:00,22.0,-2.7,30.18,North,-999,-999.0,-999.0,33,0.00,,,0.00,WSDL version 443,2013-11-27 22:43:00,
2013-11-27 17:48:00,21.8,-2.9,30.18,North,-999,-999.0,-999.0,33,0.00,,,0.00,WSDL version 443,2013-11-27 22:48:00,
2013-11-27 17:53:00,21.6,-2.5,30.15,North,-999,-999.0,-999.0,34,0.00,,,0.00,WSDL version 443,2013-11-27 22:53:00,
2013-11-27 17:58:00,21.5,-2.5,30.15,North,-999,-999.0,-999.0,34,0.00,,,0.00,WSDL version 443,2013-11-27 22:58:00,
2013-11-27 18:03:00,21.4,-2.7,30.15,North,-999,-999.0,-999.0,34,0.00,,,0.00,WSDL version 443,2013-11-27 23:03:00,
2013-11-27 18:08:00,21.3,-2.6,30.21,North,-999,-999.0,-999.0,34,0.00,,,0.00,WSDL version 443,2013-11-27 23:08:00,
2013-11-27 18:13:00,21.2,-2.2,30.21,North,-999,-999.0,-999.0,35,0.00,,,0.00,WSDL version 443,2013-11-27 23:13:00,
2013-11-27 18:18:00,21.1,-2.3,30.21,North,-999,-999.0,-999.0,35,0.00,,,0.00,WSDL version 443,2013-11-27 23:18:00,
2013-11-27 18:23:00,21.0,-2.4,30.21,North,-999,-999.0,-999.0,35,0.00,,,0.00,WSDL version 443,2013-11-27 23:23:00,
2013-11-27 18:28:00,20.8,-2.3,30.21,North,-999,-999.0,-999.0,36,0.00,,,0.00,WSDL version 443,2013-11-27 23:28:00,
2013-11-27 18:33:00,20.6,-2.2,30.21,North,-999,-999.0,-999.0,36,0.00,,,0.00,WSDL version 443,2013-11-27 23:33:00,
2013-11-27 18:38:00,20.4,-2.2,30.21,North,-999,-999.0,-999.0,36,0.00,,,0.00,WSDL version 443,2013-11-27 23:38:00,
2013-11-27 18:43:00,20.2,-2.0,30.21,North,-999,-999.0,-999.0,37,0.00,,,0.00,WSDL version 443,2013-11-27 23:43:00,
2013-11-27 18:48:00,19.9,-2.2,30.21,North,-999,-999.0,-999.0,37,0.00,,,0.00,WSDL version 443,2013-11-27 23:48:00,
2013-11-27 18:53:00,19.6,-2.1,30.21,North,-999,-999.0,-999.0,38,0.00,,,0.00,WSDL version 443,2013-11-27 23:53:00,
2013-11-27 18:58:00,19.3,-1.2,30.21,North,-999,-999.0,-999.0,40,0.00,,,0.00,WSDL version 443,2013-11-27 23:58:00,
2013-11-27 19:03:00,18.9,-1.2,30.21,North,-999,-999.0,-999.0,41,0.00,,,0.00,WSDL version 443,2013-11-28 00:03:00,
2013-11-27 19:08:00,18.6,-1.0,30.18,North,-999,-999.0,-999.0,42,0.00,,,0.00,WSDL version 443,2013-11-28 00:08:00,
2013-11-27 19:13:00,18.3,-0.5,30.18,North,-999,-999.0,-999.0,43,0.00,,,0.00,WSDL version 443,2013-11-28 00:13:00,
2013-11-27 19:18:00,18.3,-0.5,30.18,North,-999,-999.0,-999.0,43,0.00,,,0.00,WSDL version 443,2013-11-28 00:18:00,
2013-11-27 19:23:00,18.1,-0.6,30.21,North,-999,-999.0,-999.0,43,0.00,,,0.00,WSDL version 443,2013-11-28 00:23:00,
2013-11-27 19:28:00,18.1,-0.6,30.21,North,-999,-999.0,-999.0,43,0.00,,,0.00,WSDL version 443,2013-11-28 00:28:00,
2013-11-27 19:33:00,18.0,-0.8,30.21,North,-999,-999.0,-999.0,43,0.00,,,0.00,WSDL version 443,2013-11-28 00:33:00,
2013-11-27 19:38:00,18.2,-0.6,30.21,North,-999,-999.0,-999.0,43,0.00,,,0.00,WSDL version 443,2013-11-28 00:38:00,
2013-11-27 19:43:00,18.3,-0.5,30.21,North,-999,-999.0,-999.0,43,0.00,,,0.00,WSDL version 443,2013-11-28 00:43:00,
2013-11-27 19:48:00,18.5,-0.3,30.21,North,-999,-999.0,-999.0,43,0.00,,,0.00,WSDL version 443,2013-11-28 00:48:00,
2013-11-27 19:58:00,18.7,-0.6,30.21,North,-999,-999.0,-999.0,42,0.00,,,0.00,WSDL version 443,2013-11-28 00:58:00,
2013-11-27 20:03:00,18.8,-0.5,30.21,North,-999,-999.0,-999.0,42,0.00,,,0.00,WSDL version 443,2013-11-28 01:03:00,
2013-11-27 20:08:00,18.9,-0.5,30.21,North,-999,-999.0,-999.0,42,0.00,,,0.00,WSDL version 443,2013-11-28 01:08:00,
2013-11-27 20:13:00,18.9,-0.5,30.21,North,-999,-999.0,-999.0,42,0.00,,,0.00,WSDL version 443,2013-11-28 01:13:00,
2013-11-27 20:18:00,18.7,-0.6,30.21,North,-999,-999.0,-999.0,42,0.00,,,0.00,WSDL version 443,2013-11-28 01:18:00,
2013-11-27 20:23:00,18.5,-0.7,30.21,North,-999,-999.0,-999.0,42,0.00,,,0.00,WSDL version 443,2013-11-28 01:23:00,
2013-11-27 20:28:00,18.2,-0.6,30.21,North,-999,-999.0,-999.0,43,0.00,,,0.00,WSDL version 443,2013-11-28 01:28:00,
2013-11-27 20:33:00,17.8,-1.0,30.21,North,-999,-999.0,-999.0,43,0.00,,,0.00,WSDL version 443,2013-11-28 01:33:00,
2013-11-27 20:38:00,17.5,-0.7,30.21,North,-999,-999.0,-999.0,44,0.00,,,0.00,WSDL version 443,2013-11-28 01:38:00,
2013-11-27 20:43:00,17.7,-0.7,30.21,North,-999,-999.0,-999.0,44,0.00,,,0.00,WSDL version 443,2013-11-28 01:43:00,
2013-11-27 20:48:00,17.7,-0.8,30.21,North,-999,-999.0,-999.0,43,0.00,,,0.00,WSDL version 443,2013-11-28 01:48:00,
2013-11-27 20:53:00,17.6,-0.7,30.21,North,-999,-999.0,-999.0,44,0.00,,,0.00,WSDL version 443,2013-11-28 01:53:00,
2013-11-27 20:58:00,17.8,-1.0,30.21,North,-999,-999.0,-999.0,43,0.00,,,0.00,WSDL version 443,2013-11-28 01:58:00,
2013-11-27 21:03:00,17.8,-1.0,30.21,North,-999,-999.0,-999.0,43,0.00,,,0.00,WSDL version 443,2013-11-28 02:03:00,
2013-11-27 21:08:00,17.7,-0.7,30.24,North,-999,-999.0,-999.0,44,0.00,,,0.00,WSDL version 443,2013-11-28 02:08:00,
2013-11-27 21:13:00,17.4,-0.8,30.24,North,-999,-999.0,-999.0,44,0.00,,,0.00,WSDL version 443,2013-11-28 02:13:00,
2013-11-27 21:18:00,17.1,-1.1,30.24,North,-999,-999.0,-999.0,44,0.00,,,0.00,WSDL version 443,2013-11-28 02:18:00,
2013-11-27 21:23:00,16.8,-1.3,30.24,North,-999,-999.0,-999.0,44,0.00,,,0.00,WSDL version 443,2013-11-28 02:23:00,
2013-11-27 21:28:00,16.5,-1.1,30.24,North,-999,-999.0,-999.0,45,0.00,,,0.00,WSDL version 443,2013-11-28 02:28:00,
2013-11-27 21:33:00,16.3,-1.3,30.24,North,-999,-999.0,-999.0,45,0.00,,,0.00,WSDL version 443,2013-11-28 02:33:00,
2013-11-27 21:38:00,16.3,-1.3,30.24,North,-999,-999.0,-999.0,45,0.00,,,0.00,WSDL version 443,2013-11-28 02:38:00,
2013-11-27 21:43:00,16.1,-1.5,30.24,North,-999,-999.0,-999.0,45,0.00,,,0.00,WSDL version 443,2013-11-28 02:43:00,
2013-11-27 21:48:00,16.0,-1.6,30.24,North,-999,-999.0,-999.0,45,0.00,,,0.00,WSDL version 443,2013-11-28 02:48:00,
2013-11-27 21:53:00,15.8,-1.4,30.24,North,-999,-999.0,-999.0,46,0.00,,,0.00,WSDL version 443,2013-11-28 02:53:00,
2013-11-27 21:58:00,15.8,-1.3,30.24,North,-999,-999.0,-999.0,46,0.00,,,0.00,WSDL version 443,2013-11-28 02:58:00,
2013-11-27 22:03:00,15.8,-1.4,30.24,North,-999,-999.0,-999.0,46,0.00,,,0.00,WSDL version 443,2013-11-28 03:03:00,
2013-11-27 22:08:00,15.5,-1.6,30.24,North,-999,-999.0,-999.0,46,0.00,,,0.00,WSDL version 443,2013-11-28 03:08:00,
2013-11-27 22:13:00,15.6,-1.4,30.24,North,-999,-999.0,-999.0,46,0.00,,,0.00,WSDL version 443,2013-11-28 03:13:00,
2013-11-27 22:18:00,15.8,-0.9,30.24,North,-999,-999.0,-999.0,47,0.00,,,0.00,WSDL version 443,2013-11-28 03:18:00,
2013-11-27 22:23:00,15.9,-0.8,30.27,North,-999,-999.0,-999.0,47,0.00,,,0.00,WSDL version 443,2013-11-28 03:23:00,
2013-11-27 22:28:00,16.1,-0.4,30.27,North,-999,-999.0,-999.0,48,0.00,,,0.00,WSDL version 443,2013-11-28 03:28:00,
2013-11-27 22:33:00,16.2,-0.1,30.27,North,-999,-999.0,-999.0,48,0.00,,,0.00,WSDL version 443,2013-11-28 03:33:00,
2013-11-27 22:38:00,16.2,0.1,30.27,North,-999,-999.0,-999.0,48,0.00,,,0.00,WSDL version 443,2013-11-28 03:38:00,
2013-11-27 22:43:00,16.5,0.6,30.27,North,-999,-999.0,-999.0,49,0.00,,,0.00,WSDL version 443,2013-11-28 03:43:00,
2013-11-27 22:48:00,16.5,0.7,30.27,North,-999,-999.0,-999.0,49,0.00,,,0.00,WSDL version 443,2013-11-28 03:48:00,
2013-11-27 22:53:00,16.5,0.7,30.27,North,-999,-999.0,-999.0,49,0.00,,,0.00,WSDL version 443,2013-11-28 03:53:00,
2013-11-27 22:58:00,16.6,0.8,30.27,North,-999,-999.0,-999.0,49,0.00,,,0.00,WSDL version 443,2013-11-28 03:58:00,
2013-11-27 23:03:00,16.7,1.1,30.27,North,-999,-999.0,-999.0,50,0.00,,,0.00,WSDL version 443,2013-11-28 04:03:00,
2013-11-27 23:08:00,16.7,1.3,30.27,North,-999,-999.0,-999.0,50,0.00,,,0.00,WSDL version 443,2013-11-28 04:08:00,
2013-11-27 23:13:00,16.5,1.1,30.27,North,-999,-999.0,-999.0,50,0.00,,,0.00,WSDL version 443,2013-11-28 04:13:00,
2013-11-27 23:18:00,16.5,1.2,30.27,North,-999,-999.0,-999.0,50,0.00,,,0.00,WSDL version 443,2013-11-28 04:18:00,
2013-11-27 23:23:00,16.5,1.8,30.27,North,-999,-999.0,-999.0,52,0.00,,,0.00,WSDL version 443,2013-11-28 04:23:00,
2013-11-27 23:28:00,16.5,2.4,30.27,North,-999,-999.0,-999.0,53,0.00,,,0.00,WSDL version 443,2013-11-28 04:28:00,
2013-11-27 23:33:00,16.5,2.4,30.27,North,-999,-999.0,-999.0,53,0.00,,,0.00,WSDL version 443,2013-11-28 04:33:00,
2013-11-27 23:38:00,16.4,2.4,30.27,North,-999,-999.0,-999.0,53,0.00,,,0.00,WSDL version 443,2013-11-28 04:38:00,
2013-11-27 23:43:00,16.5,2.8,30.27,North,-999,-999.0,-999.0,54,0.00,,,0.00,WSDL version 443,2013-11-28 04:43:00,
2013-11-27 23:48:00,16.4,2.6,30.27,North,-999,-999.0,-999.0,54,0.00,,,0.00,WSDL version 443,2013-11-28 04:48:00,
2013-11-27 23:53:00,16.0,1.9,30.24,North,-999,-999.0,-999.0,53,0.00,,,0.00,WSDL version 443,2013-11-28 04:53:00,
2013-11-27 23:58:00,15.8,1.7,30.24,North,-999,-999.0,-999.0,53,0.00,,,0.00,WSDL version 443,2013-11-28 04:58:00,